DELTA 1 DEB, 10710

Orbit data source: Space-Track

DELTA 1 DEB, 10710 is space debris in LEO originally from a launch on Thu, 29 Jul 1976 UTC launched from the Air Force Western Test Range (AFWTR). Debris objects in space refer to the collection of defunct objects orbiting the Earth. Examples of debris include non-operational satellites, rocket bodies, and fragments generated from explosions, collisions, or faulty payload assembly.

Loading next visibility...
DELTA 1 DEB details
Identifier
10710, 1976-077AF
Orbit
LEO
Last TLE update22 hours ago
Origin
Flag of USGSFC (US)
ManufacturerUnknown
MissionSpacecraft
Bus & MotorUnknown
MassUnknown
Launch date (UTC)
1976-07-29 (48 years ago)
Launch vehicleUnknown
Launch site
Air Force Western Test Range (AFWTR)
Object type
Payload
Rocket body
Debris
Shape & HBRUnknown
Radar Cross SectionSmall (<0.1 m²)

Expand to show TLE details & history

TLE from 22 hours ago
0 DELTA 1 DEB
1 10710U 76077AF  25018.08234058  .00000658  00000-0  78807-2 0  9993
2 10710 101.7642 221.3401 0268766 229.8228 257.7867 11.98990822 91037
Epoch: 2025-01-18T01:58Z
Definitive object data (Epoch: 2025-01-18T01:58:34.226Z)
Latitude53.76235°
Longitude-89.61141°
Altitude1,745.341 km
Speed6.988 km/s
True Right ascension03h 51m 04s
True Declination53° 37' 06"
Sunlit
Object was in daylight at TLE epoch
Visualization TLE readout
Latitude60.20941°
Longitude-83.99333°
Altitude1,766.411 km
Speed6.971 km/s
Apparent Right ascension09h 18m 04s
Apparent Declination37° 25' 01"
Sunlit
Object is in daylight
Visualization observer readout
Local Sidereal Time00:51:56
Azimuth39.675° NE
Elevation1.563°
Doppler factor1
Orbital elements
Apogee altitude1,899.65 km
Perigee altitude1,466.339 km
Semi-major axis8,061.131 km
Eccentricity0.0268766
Inclination101.7642°
RAAN221.3401°
Arg. of periapsis229.8228°
True anomaly254.79918°
Mean anomaly257.7867°
Eccentric anomaly256.29066°
Mean motion2.99881 °/min
BSTAR0.0078807
Orbital period120.05 mins
Loading maneuver chart data...
Loading historical data...
Loading historical data...
Loading historical data...
Loading historical data...
Loading historical data...
Loading historical data...
Loading historical data...

DELTA 1 DEB Visibility forecast

Observer location: undefined°, undefined

Span
Click to sort rows by Start time (UTC) header in descending order
Start Az.
Max El. time (UTC)
Max El. Az.
Max El.
End time (UTC)
End Az.
16 mins2025-01-19 01:57:51.778Z25.08° NE2025-01-19 02:05:51.778Z108.487° ESE42.207°2025-01-19 02:13:51.778Z184.046° SSW
14 mins2025-01-19 03:55:51.778Z357.908° N2025-01-19 04:02:51.778Z303.655° NW28.525°2025-01-19 04:09:51.778Z248.782° W
15 mins2025-01-19 11:27:51.778Z105.678° ESE2025-01-19 11:34:51.778Z56.865° ENE27.672°2025-01-19 11:42:51.778Z1.033° NNE
19 mins2025-01-19 13:22:51.778Z169.172° S2025-01-19 13:31:51.778Z253.849° W44.127°2025-01-19 13:41:51.778Z339.638° N
9 mins2025-01-19 15:26:51.778Z246.278° WSW2025-01-19 15:30:51.778Z271.361° WNW15.617°2025-01-19 15:35:51.778Z302.176° NW
|